Погода в Селитренном

Россия / Астраханская область     47°10′04″N   47°27′09″E
темп.,
°C
ветер,
м/с
пор.,
м/с
влажн.,
%
обл.,
%
осадки,
мм/ч
давл.,
гПа
погр.,
м
28 сентября, вт
вт2801:00+11зсз59835 0.0 1013241
04:00+10зсз47905 0.0 1014172
07:00+9сз469518 0.0 1015147
10:00+13ссз457037 0.0 1017725
13:00+15ссз5556100 0.1 10171465
16:00+13с4562100 0.1 1019827
19:00+14с474982 0.0 1020344
22:00+13с5753100 0.0 1021565
29 сентября, ср
ср2901:00+12ссв5651100 0.0 1022598
04:00+10ссв574981 0.0 1023561
07:00+9ссв575294 0.0 1024731
10:00+10ссв56436 0.0 10251413
13:00+13ссв5537100 0.0 10252065
16:00+12ссв553799 0.0 10251818
19:00+12ссв4536100 0.0 1026495
22:00+9ссз334383 0.0 102764
30 сентября, чт
чт3001:00+7с22495 0.0 102715
04:00+7ссв22505 0.0 102715
07:00+6ссв45595 0.0 102867
10:00+11св45425 0.0 1030732
13:00+13ссв44325 0.0 10291967
16:00+13ссв44295 0.0 10292064
19:00+10ссв46360 0.0 1030122
22:00+9св34400 0.0 103158
1 октября, пт
пт101:00+8св45430 0.0 103167
04:00+7св45480 0.0 103184
07:00+6св45500 0.0 103279
10:00+12всв56340 0.0 1033655
13:00+14всв55270 0.0 10331737
16:00+15всв55250 0.0 10321875
19:00+11св44320 0.0 103352
22:00+10св46350 0.0 103391
2 октября, сб
сб201:00+8в34380 0.0 103348
04:00+8всв33410 0.0 103321
07:00+7в33410 0.0 103333
10:00+13в45290 0.0 1033553
13:00+15вюв44250 0.0 10331773
16:00+16в44261 0.0 10321934
19:00+13всв34290 0.0 103241
22:00+10юв34440 0.0 103253